Probability
0 0 0 0 0 0 0 0 0 0 0 0 0 0 0 0 0 0 0 0 0 0 0 0 0 0 0 0 0 0 0 0 0 0 0 0 0 0 0 0 0 0 0 0
0 0 0 0 0 0 0 0 0 0 0 0 0 0 0 0 0 0 0 0 0 0 0 0 0 0 0 0 0 0 0 0 0 0 0 0 0 0 0 0 0 0 0 0
0 0 0 0 0 0 0 0 0 0 0 0 0 0 0 0 0 0 0 0 0 0 0 0 0 0 0 0 0 0 0 0 0 0 0 0 0 0 0 0 0 0 0 0
0 0 0 0 0 0 0 0 0 0 0 0 0 0 0 0 0 0 0 0 0 0 0 0 0 0 0 0 0 0 0 0 0 0 0 0 0 0 0 0 0 0 0 0
0 0 0 0 0 0 0 0 0 0 0 0 0 0 0 0 0 0 0 0 0 0 0 0 0 0 0 0 0 0 0 0 0 0 0 0 0 0 0 0 0 0 0 0
0 0 0 0 0 0 0 0 0 0 0 0 0 0 0 0 0 0 0 0 0 0 0 0 0 0 0 0 0 0 0 0 0 0 0 0 0 0 0 0 0 0 0 0
0 0 0 0 0 0 0 0 0 0 0 0 0 0 0 0 0 0 0 0 0 0 0 0 0 0 0 0 0 0 0 0 0 0 0 0 0 0 0 0 0 0 0 0
0 0 0 0 0 0 0 0 0 0 0 0 0 0 0 0 0 0 0 0 0 0 0 0 0 0 0 0 0 0 0 0 0 0 0 0 0 0 0 0 0 0 0 0
0 0 0 0 0 0 0 0 0 0 0 0 0 0 0 0 0 0 0 0 0 0 0 0 0 0 0 0 0 0 0 0 0 0 0 0 0 0 0 0 0 0 0 0
0 0 0 0 0 0 0 0 0 0 0 0 0 0 0 0 0 0 0 0 0 0 0 0 0 0 0 0 0 0 0 0 0 0 0 0 0 0 0 0 0 0 0 0
0 0 0 0 0 0 0 0 0 0 0 0 0 0 0 0 0 0 0 0 0 0 0 0 0 0 0 0 0 0 0 0 0 0 0 0 0 0 0 0 0 0 0 0
0 0 0 0 0 0 0 0 0 0 0 0 0 0 0 0 0 0 0 0 0 0 0 0 0 0 0 0 0 0 0 0 0 0 0 0 0 0 0 0 0 0 0 0
0 0 0 0 0 0 0 0 0 0 0 0 0 0 0 0 0 0 0 0 0 0 0 0 0 0 0 0 0 0 0 0 0 0 0 0 0 0 0 0 0 0 0 0
0 0 0 0 0 0 0 0 0 0 0 0 0 0 0 0 0 0 0 0 0 0 0 0 0 0 0 0 0 0 0 0 0 0 0 0 0 0 0 0 0 0 0 0
0 0 0 0 0 0 0 0 0 0 0 0 0 0 0 0 0 0 0 0 0 0 0 0 0 0 0 0 0 0 0 0 0 0 0 0 0 0 0 0 0 0 0 0
0 0 0 0 0 0 0 0 0 0 0 0 0 0 0 0 0 0 0 0 0 0 0 0 0 0 0 0 0 0 0 0 0 0 0 0 0 0 0 0 0 0 0 0
0 0 0 0 0 0 0 0 0 0 0 0 0 0 0 0 0 0 0 0 0 0 0 0 0 0 0 0 0 0 0 0 0 0 0 0 0 0 0 0 0 0 0 0
0 0 0 0 0 0 0 0 0 0 0 0 0 0 0 0 0 0 0 0 0 0 0 0 0 0 0 0 0 0 0 0 0 0 0 0 0 0 0 0 0 0 0 0
0 0 0 0 0 0 0 0 0 0 0 0 0 0 0 0 0 0 0 0 0 0 0 0 0 0 0 0 0 0 0 0 0 0 0 0 0 0 0 0 0 0 0 0
0 0 0 0 0 0 0 0 0 0 0 0 0 0 0 0 0 0 0 0 0 0 0 0 0 0 0 0 0 0 0 0 0 0 0 0 0 0 0 0 0 0 0 0
0 0 0 0 0 0 0 0 0 0 0 0 0 0 0 0 0 0 0 0 0 0 0 0 0 0 0 0 0 0 0 0 0 0 0 0 0 0 0 0 0 0 0 0
0 0 0 0 0 0 0 0 0 0 0 0 0 0 0 0 0 0 0 0 0 0 0 0 0 0 0 0 0 0 0 0 0 0 0 0 0 0 0 0 0 0 0 0
0 0 0 0 0 0 0 0 0 0 0 0 0 0 0 0 0 0 0 0 0 0 0 0 0 0 0 0 0 0 0 0 0 0 0 0 0 0 0 0 0 0 0 0
0 0 0 0 0 0 0 0 0 0 0 0 0 0 0 0 0 0 0 0 0 0 0 0 0 0 0 0 0 0 0 0 0 0 0 0 0 0 0 0 0 0 0 0
0 0 0 0 0 0 0 0 0 0 0 0 0 0 0 0 0 0 0 0 0 0 0 0 0 0 0 0 0 0 0 0 0 0 0 0 0 0 0 0 0 0 0 0
0 0 0 0 0 0 0 0 0 0 0 0 0 0 0 0 0 0 0 0 0 0 0 0 0 0 0 0 0 0 0 0 0 0 0 0 0 0 0 0 0 0 0 0
0 0 0 0 0 0 0 0 0 0 0 0 0 0 0 0 0 0 0 0 0 0 0 0 0 0 0 0 0 0 0 0 0 0 0 0 0 0 0 0 0 0 0 0
Wind_Speed
6 6 4 5 7 8 8 7 5 4 4 3 1 1 2 3 3 3 3 3 3 2 2 2 2 2 2 2 1 1 1 1 1 1 1 0 0 0 0 0 0 1 1 1
5 7 5 5 6 8 9 7 7 5 4 1 1 2 2 2 2 2 3 3 3 3 2 2 2 2 2 2 2 1 1 1 1 1 1 0 0 0 0 1 1 0 1 1
3 4 4 5 6 7 6 6 5 6 4 1 1 1 1 1 2 2 2 3 3 3 3 2 2 2 2 2 2 2 1 1 0 1 1 0 0 0 0 1 1 0 1 1
1 1 5 3 1 3 4 4 2 2 2 1 1 1 1 2 2 2 2 2 2 3 4 4 3 2 2 2 1 1 1 1 0 0 1 1 0 0 0 0 1 1 1 1
2 3 4 2 2 1 3 4 2 2 1 2 2 1 2 3 3 2 1 2 2 2 3 3 4 3 2 2 2 1 1 1 1 0 1 1 1 0 1 1 1 1 1 1
2 3 3 2 3 3 1 3 2 1 1 0 2 0 2 2 3 3 3 2 2 3 3 3 4 4 2 2 2 2 2 2 2 1 1 1 1 1 1 1 1 1 1 1
3 3 3 2 4 3 1 4 4 2 0 1 1 1 1 2 3 3 3 3 3 3 3 3 4 3 3 3 3 2 2 2 2 2 1 1 2 2 2 2 2 2 2 2
2 3 4 3 3 1 2 4 4 4 3 2 2 3 3 3 3 4 4 4 3 3 3 4 4 3 3 3 3 3 2 2 2 2 2 2 3 2 2 2 2 2 3 3
3 2 1 1 1 3 3 4 4 4 3 2 2 2 3 3 3 3 3 3 3 3 3 4 4 3 3 3 3 3 3 3 2 3 3 3 2 2 2 2 2 2 2 2
2 2 1 2 3 4 5 4 4 4 4 4 2 2 2 2 2 3 3 3 3 3 3 4 4 4 3 3 3 2 3 3 3 3 3 3 2 2 2 2 2 2 2 2
2 2 2 2 4 5 4 4 4 4 4 3 2 2 2 2 2 2 3 3 3 3 3 4 4 4 4 4 3 3 3 3 3 3 3 3 3 3 2 2 2 2 1 1
2 2 2 2 3 4 4 4 4 3 4 3 2 2 2 2 2 2 2 3 3 3 3 4 4 4 4 4 4 3 3 3 2 2 2 3 3 4 6 5 7 6 6 4
2 3 2 2 3 3 3 3 3 3 2 2 2 2 2 2 2 3 3 3 3 3 3 3 4 4 4 4 4 4 4 3 3 3 3 3 2 3 3 5 7 8 8 7
3 3 2 3 3 3 3 3 3 3 3 3 2 2 2 2 2 2 2 2 2 3 3 3 4 4 5 4 4 4 4 4 3 2 2 2 2 2 2 3 3 3 5 7
3 3 2 2 2 3 3 3 3 3 3 3 3 2 2 2 2 2 2 2 2 3 3 3 4 4 4 4 4 4 3 3 3 2 2 3 3 3 3 3 3 3 3 4
3 2 1 2 2 3 3 3 2 3 2 2 2 2 2 2 2 2 2 2 2 2 3 3 3 3 4 4 3 3 3 4 3 2 2 2 3 3 3 3 2 2 2 2
1 1 1 2 2 3 3 3 2 2 2 2 2 2 2 2 2 2 2 2 2 2 2 2 3 3 3 3 3 2 2 2 4 3 2 2 2 2 2 2 2 2 2 3
2 2 2 2 2 2 3 3 2 2 2 2 1 1 1 1 1 1 2 2 3 3 3 3 3 3 3 3 3 2 2 2 2 2 2 2 2 2 2 2 2 2 2 3
2 2 1 2 2 1 2 2 2 2 2 1 1 1 1 1 1 1 1 2 2 2 2 3 4 3 3 3 3 2 2 3 2 2 2 3 2 2 2 2 2 1 1 2
3 3 3 2 1 1 1 2 2 1 1 1 1 1 1 1 1 1 2 1 1 1 1 2 2 2 2 2 3 2 2 2 2 2 2 2 2 2 2 1 1 1 2 2
2 3 3 3 3 2 2 2 1 2 2 1 0 0 1 1 1 1 1 1 2 2 1 2 2 1 1 2 3 2 2 2 2 2 2 2 1 1 1 1 1 1 1 1
2 2 2 2 3 2 2 2 2 2 2 2 1 1 1 1 1 1 1 1 1 2 1 1 1 2 2 2 1 2 2 2 2 1 1 1 1 1 1 1 1 2 2 2
2 2 2 2 2 2 3 2 2 1 1 1 1 1 1 1 1 1 1 1 1 1 1 1 1 2 2 1 1 1 1 1 1 1 1 1 1 1 1 1 1 2 2 2
2 3 3 2 2 2 3 3 3 2 2 2 1 1 1 1 1 1 1 1 2 2 1 1 2 2 2 1 1 1 1 1 1 1 1 1 1 1 1 1 2 2 2 3
2 2 2 2 2 2 2 3 3 2 2 2 2 2 1 0 1 1 1 0 1 2 1 1 2 2 2 1 1 1 0 0 0 0 1 1 1 1 1 2 2 2 2 3
2 2 2 2 1 1 1 1 2 2 2 2 2 2 1 1 1 1 0 1 1 2 1 0 1 1 1 1 1 1 0 1 1 1 1 1 2 2 2 2 3 2 2 3
1 1 1 1 2 2 2 1 1 2 2 1 1 2 1 1 1 1 1 1 1 1 1 1 1 1 1 1 1 1 1 1 1 1 1 2 2 2 2 3 3 3 3 3
Wind_Direction
289 292 257 251 234 221 224 227 231 252 252 249 269 71 79 68 65 67 66 53 44 33 32 37 25 10 355 338 337 325 286 222 224 231 248 282 286 272 276 264 267 247 279 299
281 286 277 262 247 228 233 238 247 264 277 9 50 51 61 66 68 70 45 24 22 15 17 20 9 345 332 328 335 333 309 262 217 188 195 183 256 279 331 324 321 286 275 299
255 276 309 262 235 221 224 230 231 242 254 10 28 17 39 90 92 63 25 7 5 2 357 352 341 330 319 323 336 338 323 320 223 185 171 172 249 68 348 316 332 347 321 312
241 248 238 243 241 203 211 223 219 265 290 254 243 231 101 90 73 39 21 9 0 353 349 342 335 336 342 348 357 356 343 333 321 139 136 127 88 41 337 345 349 351 329 329
212 235 262 278 324 215 209 251 238 245 301 348 355 65 53 43 35 32 23 17 8 358 349 341 340 342 9 10 3 15 20 15 11 48 133 136 113 321 310 332 355 11 18 11
237 239 244 300 328 337 73 281 315 286 236 353 55 124 281 6 22 39 43 33 20 11 8 357 346 354 17 16 12 9 7 3 2 5 99 115 114 47 21 23 14 36 27 16
240 244 266 346 343 27 130 272 328 341 30 74 166 243 334 27 25 36 40 27 24 23 12 358 350 2 17 20 4 352 5 20 18 18 71 80 78 61 53 51 48 43 37 25
223 233 255 4 36 59 296 328 347 11 29 32 23 32 45 44 33 32 34 27 25 29 13 2 0 11 18 13 355 6 32 43 42 37 51 63 75 61 53 58 53 48 47 30
208 226 332 45 14 351 357 359 2 4 13 32 46 26 33 34 37 32 29 23 22 29 17 5 5 13 19 1 2 22 42 47 48 48 56 67 81 73 55 53 53 49 53 44
264 294 337 13 19 17 15 11 8 14 14 24 33 31 30 33 34 35 20 15 15 23 25 10 8 14 14 6 14 40 53 49 48 58 57 56 62 71 69 57 57 56 53 52
268 300 351 13 5 358 6 13 18 18 17 17 33 25 25 23 29 34 17 10 15 20 24 11 10 18 17 11 21 45 55 53 51 54 65 61 58 58 65 60 68 70 65 87
267 303 293 301 342 355 9 4 2 7 7 12 22 30 25 19 22 28 21 15 20 20 24 15 13 22 18 14 25 49 58 52 51 52 57 69 70 58 52 58 55 53 53 55
315 328 337 326 343 1 2 350 348 352 0 10 14 18 26 23 22 24 20 21 20 13 13 16 23 31 18 18 35 50 58 52 48 49 55 61 69 75 61 47 54 55 52 50
359 13 355 345 341 354 5 3 6 9 9 21 21 20 24 27 22 20 14 9 14 17 15 17 32 30 16 21 41 51 55 56 56 54 55 57 56 60 69 65 48 39 39 44
352 351 317 326 355 5 9 13 11 4 3 10 12 13 15 17 8 354 349 359 24 29 22 25 33 22 13 24 39 48 55 55 53 53 56 58 56 56 56 58 58 46 35 29
331 350 12 15 2 355 358 357 350 335 341 352 360 0 2 3 350 340 350 11 38 30 20 26 25 14 13 26 38 47 54 59 61 60 60 59 57 58 55 51 50 48 38 23
341 313 318 315 319 325 326 326 326 326 332 338 339 348 354 355 356 5 14 14 28 32 28 34 26 18 17 25 38 51 53 52 53 57 59 59 58 58 54 52 45 37 25 12
275 263 256 258 270 295 315 330 336 333 319 317 336 341 339 355 0 2 9 24 43 38 31 28 26 23 27 29 36 50 59 59 57 62 63 64 60 53 53 52 42 31 14 6
329 322 314 297 294 292 303 317 327 328 329 335 341 338 342 353 350 9 28 46 49 34 17 27 28 29 31 30 33 48 57 58 55 55 61 60 54 49 50 45 35 21 12 6
344 347 344 336 352 358 332 329 337 339 336 353 19 20 10 360 7 22 40 34 12 6 15 20 27 30 30 32 34 48 58 63 66 60 55 55 56 50 41 31 23 8 0 354
335 343 349 358 0 3 353 339 336 332 334 352 39 333 339 355 10 22 33 355 0 27 27 23 26 26 33 38 38 51 57 61 67 66 59 52 45 38 26 13 3 354 349 344
335 342 347 350 354 347 344 343 338 333 336 350 6 21 37 3 0 1 340 282 310 348 1 18 28 23 25 30 37 55 56 52 52 53 50 43 33 14 359 349 341 338 334 327
340 340 340 337 334 332 343 348 343 338 335 330 325 307 277 278 274 242 289 320 333 348 354 343 350 10 25 29 48 58 55 48 44 40 32 22 3 342 332 329 326 322 317 318
345 346 338 335 348 355 349 345 349 349 343 333 330 317 294 299 324 324 289 293 327 336 332 325 359 16 23 32 55 64 62 49 34 10 352 335 323 317 311 309 308 309 310 312
342 339 336 341 345 340 339 345 356 1 2 0 356 354 341 305 280 307 332 315 322 338 334 338 1 11 22 31 45 43 30 347 332 301 286 289 297 300 299 298 299 299 303 305
331 323 318 317 320 324 327 334 340 340 349 354 354 1 12 25 29 3 3 353 342 335 340 1 17 11 20 25 14 359 347 328 325 316 300 294 297 295 293 294 296 291 291 292
339 339 342 348 351 345 340 340 341 336 336 341 340 346 5 11 14 17 12 354 348 351 360 15 23 15 5 348 329 318 305 294 287 285 290 291 288 285 287 288 287 289 290 292